Warning: Javascript must be enabled to use all the features on this page!


Page Loading - Please Wait...

Click to hideNews Bulletins
  • Try our new Mobile-friendly water data site from your mobile device!
  • Full News RSS icon
  • USGS 04189260 Blanchard River at Ottawa OH

    PROVISIONAL DATA SUBJECT TO REVISION

    Click to hidestation-specific text
    Station operated in cooperation with the Village of Ottawa and the National Streamflow Information Program.
     04189260 Blanchard River at Ottawa, OH
     LOCATION.--Lat 41°01'01", long 84°02'49", Putnam County, OH, Hydrologic 
         Unit 04100008, on right bank at downstream side of Oak Street, 200 ft. upstream 
         of B&O railroad bridge, 800 ft. upstream of SR65 bridge, 1,200 ft. southeast of 
         intersection of SR65 and US RT224 in the village of Ottawa, OH.
     DRAINAGE AREA.--628 mi2.
     PERIOD OF RECORD.--October 2009 to current water year.
    

    Boating safety tips
    Available Parameters Available Period
    All 2 Available Parameters for this site
      
    00065 Gage height 2014-04-24  2014-08-22
    00060 Discharge 2009-10-01  2014-08-22

    Graph
    Graph w/ stats
    Graph w/o stats
    Graph w/ (up to 3) parms
    Table
    Tab-separated
    Days  (7)
     

      -- or --
    Begin date
     

    End date
     

    Summary of all available data for this site
    Instantaneous-data availability statement
    Gage height, feet
    TIMEAug 15Aug 16Aug 17Aug 18Aug 19Aug 20Aug 21Aug 22
    00:00 EDT6.00P  5.56P  5.27P  5.18P  5.09P  5.19P  5.18P  5.74P  
    00:30 EDT5.99P  5.54P  5.23P  5.21P  5.09P  5.18P  5.18P  5.73P  
    01:00 EDT5.99P  5.54P  5.25P  5.21P  5.10P  5.21P  5.19P  5.72P  
    01:30 EDT5.98P  5.52P  5.26P  5.20P  5.11P  5.27P  5.19P  5.71P  
    02:00 EDT5.94P  5.52P  5.24P  5.17P  5.11P  5.34P  5.20P  5.70P  
    02:30 EDT5.93P  5.54P  5.23P  5.23P  5.12P  5.36P  5.22P  5.68P  
    03:00 EDT5.91P  5.50P  5.21P  5.18P  5.11P  5.34P  5.25P  5.67P  
    03:30 EDT5.92P  5.52P  5.24P  5.18P  5.12P  5.34P  5.28P  5.66P  
    04:00 EDT5.90P  5.49P  5.24P  5.19P  5.12P  5.33P  5.33P  5.65P  
    04:30 EDT5.87P  5.52P  5.19P  5.20P  5.11P  5.32P  5.39P  5.64P  
    05:00 EDT5.85P  5.49P  5.19P  5.20P  5.10P  5.29P  5.46P  5.62P  
    05:30 EDT5.85P  5.50P  5.20P  5.18P  5.10P  5.29P  5.53P  5.61P  
    06:00 EDT5.80P  5.47P  5.19P  5.17P  5.10P  5.34P  5.59P  5.61P  
    06:30 EDT5.83P  5.50P  5.19P  5.18P  5.09P  5.31P  5.65P  5.59P  
    07:00 EDT5.80P  5.46P  5.20P  5.17P  5.15P  5.31P  5.71P  5.58P  
    07:30 EDT5.81P  5.46P  5.16P  5.18P  5.10P  5.32P  5.76P  5.57P  
    08:00 EDT5.77P  5.47P  5.20P  5.18P  5.11P  5.33P  5.80P  5.57P  
    08:30 EDT5.76P  5.45P  5.17P  5.16P  5.10P  5.33P  5.84P  5.55P  
    09:00 EDT5.76P  5.43P  5.19P  5.15P  5.11P  5.34P  5.87P  5.55P  
    09:30 EDT5.74P  5.44P  5.17P  5.18P  5.09P  5.31P  5.90P  5.54P  
    10:00 EDT5.72P  5.41P  5.17P  5.16P  5.08P  5.32P  5.92P   
    10:30 EDT5.75P  5.40P  5.18P  5.14P  5.08P  5.32P  5.94P   
    11:00 EDT5.69P  5.37P  5.16P  5.15P  5.06P  5.31P  5.95P   
    11:30 EDT5.71P  5.35P  5.18P  5.17P  5.05P  5.31P  5.94P   
    12:00 EDT5.70P  5.35P  5.18P  5.14P  5.05P  5.32P  5.94P   
    12:30 EDT5.70P  5.35P  5.18P  5.13P  5.04P  5.31P  5.93P   
    13:00 EDT5.68P  5.32P  5.17P  5.11P  5.05P  5.31P  5.92P   
    13:30 EDT5.68P  5.31P  5.17P  5.14P  5.05P  5.31P  5.90P   
    14:00 EDT5.66P  5.30P  5.16P  5.13P  5.01P  5.30P  5.89P   
    14:30 EDT5.65P  5.32P  5.17P  5.12P  5.01P  5.29P  5.88P   
    15:00 EDT5.63P  5.29P  5.15P  5.12P  5.00P  5.29P  5.87P   
    15:30 EDT5.63P  5.29P  5.16P  5.12P  5.01P  5.28P  5.85P   
    16:00 EDT5.64P  5.30P  5.14P  5.10P  5.01P  5.28P  5.84P   
    16:30 EDT5.62P  5.29P  5.15P  5.11P  5.00P  5.28P  5.82P   
    17:00 EDT5.61P  5.33P  5.11P  5.09P  4.99P  5.27P  5.81P   
    17:30 EDT5.60P  5.32P  5.10P  5.10P  5.00P  5.26P  5.80P   
    18:00 EDT5.61P  5.32P  5.12P  5.09P  4.98P  5.25P  5.79P   
    18:30 EDT5.58P  5.33P  5.13P  5.11P  4.98P  5.25P  5.79P   
    19:00 EDT5.59P  5.29P  5.15P  5.10P  4.98P  5.24P  5.79P   
    19:30 EDT5.57P  5.32P  5.15P  5.07P  5.02P  5.23P  5.79P   
    20:00 EDT5.56P  5.32P  5.16P  5.11P  5.03P  5.22P  5.79P   
    20:30 EDT5.59P  5.30P  5.13P  5.10P  5.05P  5.22P  5.78P   
    21:00 EDT5.55P  5.29P  5.18P  5.09P  5.04P  5.21P  5.78P   
    21:30 EDT5.58P  5.29P  5.18P  5.09P  5.05P  5.21P  5.78P   
    22:00 EDT5.56P  5.30P  5.19P  5.08P  5.03P  5.20P  5.77P   
    22:30 EDT5.55P  5.30P  5.17P  5.09P  5.04P  5.19P  5.77P   
    23:00 EDT5.54P  5.27P  5.17P  5.10P  5.11P  5.19P  5.76P   
    23:30 EDT5.54P  5.27P  5.18P  5.08P  5.15P  5.18P  5.75P   
    COUNT4848484848484820
    MAX6.005.565.275.235.155.365.955.74
    MIN5.545.275.105.074.985.185.185.54

    Explanation
      P  Provisional data subject to revision.